| time (UTC) | temp C | wind direction | speed KPH | gust KPH | rain 1hr cm | rain 24hr cm | rain mn cm | humidity % | barometer mb |
| 20260507002309 | 9 | 67 | 0.0 | 1.6 | 0.00 | 0.00 | 0.00 | 72 | 11.3 |
| 20260507001310 | 9 | 26 | 0.0 | 1.6 | 0.00 | 0.00 | 0.00 | 72 | 11.3 |
| 20260506235309 | 10 | 30 | 1.6 | 8.0 | 0.00 | 0.00 | 0.00 | 71 | 11.2 |
| 20260506234309 | 10 | 5 | 0.0 | 12.9 | 0.00 | 0.00 | 0.00 | 70 | 11.3 |
| 20260506233309 | 10 | 44 | 0.0 | 6.4 | 0.00 | 0.00 | 0.00 | 70 | 11.2 |
| 20260506232309 | 10 | 55 | 0.0 | 6.4 | 0.00 | 0.00 | 0.00 | 70 | 11.1 |
| 20260506225309 | 10 | 17 | 0.0 | 0.0 | 0.00 | 0.00 | 0.00 | 70 | 11.0 |
| 20260506224309 | 10 | 24 | 0.0 | 0.0 | 0.00 | 0.00 | 0.00 | 70 | 10.9 |
| 20260506222309 | 10 | 54 | 0.0 | 0.0 | 0.00 | 0.00 | 0.00 | 70 | 10.8 |
| 20260506221310 | 10 | 34 | 0.0 | 3.2 | 0.00 | 0.00 | 0.00 | 70 | 10.8 |
| 20260506220309 | 10 | 65 | 0.0 | 1.6 | 0.00 | 0.00 | 0.00 | 70 | 10.7 |
| 20260506215309 | 10 | 75 | 0.0 | 0.0 | 0.00 | 0.00 | 0.00 | 69 | 10.8 |
| 20260506213309 | 11 | 75 | 0.0 | 0.0 | 0.00 | 0.00 | 0.00 | 68 | 10.7 |
| 20260506212309 | 11 | 103 | 0.0 | 0.0 | 0.00 | 0.00 | 0.00 | 67 | 10.6 |
| 20260506211310 | 11 | 119 | 0.0 | 0.0 | 0.00 | 0.00 | 0.00 | 68 | 10.5 |
| 20260506205309 | 11 | 119 | 0.0 | 0.0 | 0.00 | 0.00 | 0.00 | 67 | 10.4 |
| 20260506204309 | 11 | 119 | 0.0 | 0.0 | 0.00 | 0.00 | 0.00 | 66 | 10.4 |
| 20260506203309 | 11 | 119 | 0.0 | 0.0 | 0.00 | 0.00 | 0.00 | 65 | 10.3 |
| 20260506202309 | 11 | 119 | 0.0 | 0.0 | 0.00 | 0.00 | 0.00 | 65 | 10.2 |
| 20260506201309 | 11 | 119 | 0.0 | 0.0 | 0.00 | 0.00 | 0.00 | 65 | 10.2 |
| 20260506194309 | 11 | 119 | 0.0 | 0.0 | 0.00 | 0.00 | 0.00 | 65 | 10.2 |
| 20260506193309 | 11 | 119 | 0.0 | 0.0 | 0.00 | 0.00 | 0.00 | 64 | 10.0 |
| 20260506192310 | 11 | 119 | 0.0 | 0.0 | 0.00 | 0.00 | 0.00 | 64 | 9.6 |
| 20260506191309 | 11 | 119 | 0.0 | 0.0 | 0.00 | 0.00 | 0.00 | 64 | 9.5 |
| 20260506190309 | 11 | 117 | 0.0 | 0.0 | 0.00 | 0.00 | 0.00 | 63 | 9.5 |
| 20260506185310 | 11 | 119 | 0.0 | 0.0 | 0.00 | 0.00 | 0.00 | 63 | 9.3 |
| 20260506184309 | 11 | 119 | 0.0 | 0.0 | 0.00 | 0.00 | 0.00 | 63 | 9.2 |
| 20260506182309 | 12 | 99 | 0.0 | 0.0 | 0.00 | 0.00 | 0.00 | 63 | 9.1 |
| 20260506175309 | 12 | 103 | 0.0 | 4.8 | 0.00 | 0.00 | 0.00 | 63 | 8.9 |
| 20260506174309 | 12 | 96 | 0.0 | 6.4 | 0.00 | 0.00 | 0.00 | 63 | 8.9 |
| 20260506173310 | 12 | 106 | 0.0 | 3.2 | 0.00 | 0.00 | 0.00 | 62 | 8.7 |
| 20260506172309 | 12 | 132 | 0.0 | 9.7 | 0.00 | 0.00 | 0.00 | 62 | 8.6 |
| 20260506165309 | 12 | 90 | 0.0 | 3.2 | 0.00 | 0.00 | 0.00 | 61 | 8.3 |
| 20260506164309 | 12 | 92 | 0.0 | 3.2 | 0.00 | 0.00 | 0.00 | 61 | 8.5 |
| 20260506163310 | 12 | 121 | 0.0 | 4.8 | 0.00 | 0.00 | 0.00 | 61 | 8.5 |
| 20260506162309 | 12 | 92 | 0.0 | 6.4 | 0.00 | 0.00 | 0.00 | 61 | 8.4 |
| 20260506161309 | 12 | 73 | 3.2 | 14.5 | 0.00 | 0.00 | 0.00 | 60 | 8.5 |
| 20260506160310 | 12 | 92 | 1.6 | 12.9 | 0.00 | 0.00 | 0.00 | 61 | 8.5 |
| 20260506155309 | 12 | 108 | 4.8 | 11.3 | 0.00 | 0.00 | 0.00 | 62 | 8.4 |
| 20260506154309 | 12 | 53 | 1.6 | 17.7 | 0.00 | 0.00 | 0.00 | 62 | 8.5 |
| 20260506153309 | 12 | 69 | 0.0 | 14.5 | 0.00 | 0.00 | 0.00 | 62 | 8.4 |
| 20260506152309 | 12 | 52 | 3.2 | 16.1 | 0.00 | 0.00 | 0.00 | 62 | 8.5 |
| 20260506151310 | 12 | 95 | 4.8 | 17.7 | 0.00 | 0.00 | 0.00 | 63 | 8.4 |
| 20260506145309 | 12 | 120 | 3.2 | 16.1 | 0.00 | 0.00 | 0.00 | 62 | 8.4 |
| 20260506143310 | 12 | 140 | 4.8 | 17.7 | 0.00 | 0.00 | 0.00 | 62 | 8.3 |
| 20260506141309 | 12 | 92 | 14.5 | 25.7 | 0.00 | 0.00 | 0.00 | 61 | 8.2 |
| 20260506134309 | 12 | 132 | 11.3 | 30.6 | 0.00 | 0.00 | 0.00 | 59 | 8.1 |
| 20260506133309 | 12 | 46 | 14.5 | 24.1 | 0.00 | 0.00 | 0.00 | 58 | 8.0 |
| 20260506132309 | 12 | 78 | 11.3 | 24.1 | 0.00 | 0.00 | 0.00 | 59 | 8.0 |
| 20260506131310 | 12 | 71 | 3.2 | 17.7 | 0.00 | 0.00 | 0.00 | 59 | 7.9 |
| 20260506124309 | 12 | 62 | 9.7 | 19.3 | 0.00 | 0.00 | 0.00 | 58 | 7.9 |
| 20260506123309 | 12 | 96 | 9.7 | 25.7 | 0.00 | 0.00 | 0.00 | 58 | 7.9 |
| 20260506121309 | 12 | 40 | 9.7 | 22.5 | 0.00 | 0.00 | 0.00 | 55 | 7.7 |
| 20260506115309 | 12 | 63 | 3.2 | 17.7 | 0.00 | 0.00 | 0.00 | 58 | 7.5 |
| 20260506114309 | 12 | 36 | 8.0 | 20.9 | 0.00 | 0.00 | 0.00 | 59 | 7.5 |
| 20260506113309 | 12 | 66 | 8.0 | 14.5 | 0.00 | 0.00 | 0.00 | 59 | 7.6 |
| 20260506112310 | 12 | 91 | 9.7 | 16.1 | 0.00 | 0.00 | 0.00 | 59 | 7.5 |
| 20260506111309 | 12 | 101 | 6.4 | 17.7 | 0.00 | 0.00 | 0.00 | 60 | 7.6 |
| 20260506105309 | 12 | 61 | 6.4 | 19.3 | 0.00 | 0.00 | 0.00 | 62 | 7.6 |
| 20260506104309 | 12 | 30 | 6.4 | 19.3 | 0.00 | 0.00 | 0.00 | 62 | 7.5 |
| 20260506103309 | 12 | 65 | 4.8 | 25.7 | 0.00 | 0.00 | 0.00 | 62 | 7.4 |
| 20260506102309 | 12 | 69 | 11.3 | 24.1 | 0.00 | 0.00 | 0.00 | 61 | 7.3 |
| 20260506101309 | 12 | 32 | 0.0 | 20.9 | 0.00 | 0.00 | 0.00 | 61 | 7.3 |
| 20260506094309 | 13 | 47 | 8.0 | 20.9 | 0.00 | 0.00 | 0.00 | 59 | 7.2 |
| 20260506093309 | 13 | 48 | 9.7 | 20.9 | 0.00 | 0.00 | 0.00 | 58 | 7.0 |
| 20260506092309 | 13 | 86 | 8.0 | 19.3 | 0.00 | 0.00 | 0.00 | 59 | 7.2 |
| 20260506091309 | 13 | 61 | 9.7 | 32.2 | 0.00 | 0.00 | 0.00 | 58 | 7.1 |
| 20260506085309 | 13 | 107 | 14.5 | 29.0 | 0.00 | 0.00 | 0.00 | 59 | 6.9 |
| 20260506084309 | 13 | 55 | 11.3 | 25.7 | 0.00 | 0.00 | 0.00 | 59 | 6.8 |
| 20260506083309 | 12 | 71 | 12.9 | 27.4 | 0.00 | 0.00 | 0.00 | 61 | 6.7 |
| 20260506082309 | 12 | 88 | 14.5 | 27.4 | 0.00 | 0.00 | 0.00 | 60 | 6.6 |
| 20260506081309 | 12 | 64 | 12.9 | 22.5 | 0.00 | 0.00 | 0.00 | 65 | 6.4 |
| 20260506073309 | 11 | 45 | 1.6 | 19.3 | 0.00 | 0.00 | 0.00 | 73 | 6.5 |
| 20260506072309 | 11 | 61 | 6.4 | 17.7 | 0.00 | 0.00 | 0.00 | 73 | 6.4 |
| 20260506071309 | 11 | 64 | 4.8 | 16.1 | 0.00 | 0.00 | 0.00 | 74 | 6.4 |
| 20260506062309 | 10 | 19 | 1.6 | 14.5 | 0.00 | 0.00 | 0.00 | 76 | 6.2 |
| 20260506061309 | 10 | 15 | 3.2 | 17.7 | 0.00 | 0.00 | 0.00 | 77 | 6.0 |
| 20260506044309 | 9 | 13 | 0.0 | 6.4 | 0.00 | 0.00 | 0.00 | 80 | 6.0 |
| 20260506043309 | 9 | 5 | 0.0 | 1.6 | 0.00 | 0.00 | 0.00 | 81 | 6.0 |
| 20260506041310 | 9 | 5 | 0.0 | 1.6 | 0.00 | 0.00 | 0.00 | 82 | 6.0 |
| 20260506035309 | 9 | 22 | 0.0 | 8.0 | 0.00 | 0.00 | 0.00 | 82 | 6.1 |
| 20260506034313 | 9 | 63 | 0.0 | 6.4 | 0.00 | 0.00 | 0.00 | 83 | 6.2 |
| 20260506033309 | 8 | 336 | 0.0 | 14.5 | 0.00 | 0.00 | 0.00 | 83 | 6.3 |
| 20260506032314 | 8 | 22 | 6.4 | 14.5 | 0.00 | 0.00 | 0.00 | 83 | 6.3 |
| 20260506025311 | 8 | 64 | 0.0 | 9.7 | 0.00 | 0.00 | 0.00 | 84 | 6.5 |
| 20260506024313 | 8 | 67 | 1.6 | 17.7 | 0.00 | 0.00 | 0.00 | 84 | 6.6 |
| 20260506022309 | 8 | 57 | 0.0 | 9.7 | 0.00 | 0.00 | 0.00 | 84 | 6.7 |
| 20260506021309 | 8 | 78 | 1.6 | 14.5 | 0.00 | 0.00 | 0.00 | 84 | 6.8 |
| 20260506015309 | 8 | 78 | 1.6 | 11.3 | 0.00 | 0.00 | 0.00 | 84 | 6.8 |
| 20260506014309 | 8 | 26 | 1.6 | 16.1 | 0.00 | 0.00 | 0.00 | 83 | 6.8 |
| 20260506013310 | 8 | 76 | 4.8 | 14.5 | 0.00 | 0.00 | 0.00 | 82 | 6.9 |
| 20260506012309 | 9 | 53 | 1.6 | 19.3 | 0.00 | 0.00 | 0.00 | 81 | 7.0 |
| 20260506011312 | 9 | 89 | 6.4 | 19.3 | 0.00 | 0.00 | 0.00 | 79 | 7.1 |
| 20260506005309 | 10 | 67 | 11.3 | 22.5 | 0.00 | 0.00 | 0.00 | 77 | 7.2 |
| 20260506004309 | 10 | 78 | 6.4 | 17.7 | 0.00 | 0.00 | 0.00 | 77 | 7.3 |